Вернуться в каталог

PEGASUS R/B

АктивенVLEO
NORAD 27371·ROCKET BODY·🇺🇸 United States

Запущен Feb 5, 2002 с Cape Canaveral Space Force Station

Loading…

Ближайшие Пролёты (ближайшие 24 часа)

TLE

СвежийSource: Space-Track

Эпоха: Sep 14, 2026, 13:52 UTC

1 27371U 02004B   26257.57795986  .00039573  00000-0  38987-3 0  9999
2 27371  38.0134 308.8298 0000790 288.7001  71.3695 15.65029940355545

Отслеживайте PEGASUS R/B в реальном времени с AllMySat

Download on the App Store